Terminal Aerodrome Forecast
Issued by NWS Jacksonville, FL

Home | Current Version | Previous Version | Text Only | Print | Product List | Glossary On
Versions: 1 2 3 4 5 6 7 8 9 10 11 12 13 14 15 16 17 18 19 20 21 22 23 24
000
FTUS42 KJAX 012322
TAFSSI
TAF
KSSI 012322Z 0200/0224 03005KT 1SM BR OVC004
     FM020300 02004KT 1SM BR OVC001
     FM020430 01003KT 1/4SM FG OVC001
     FM021400 36003KT 2SM BR OVC003
     FM021700 08005KT P6SM OVC010
     FM022000 10006KT P6SM BKN035=

USA.gov is the U.S. government's official web portal to all federal, state and local government web resources and services.